TimeEDT,TemperatureF,Dew PointF,Humidity,Sea Level PressureIn,VisibilityMPH,Wind Direction,Wind SpeedMPH,Gust SpeedMPH,PrecipitationIn,Events,Conditions,WindDirDegrees,DateUTC
12:53 AM,68.0,52.0,56,29.65,10.0,South,11.5,-,N/A,,Overcast,180,2014-04-15 04:53:00
1:53 AM,68.0,52.0,56,29.61,10.0,South,8.1,19.6,N/A,,Overcast,170,2014-04-15 05:53:00
2:53 AM,66.9,52.0,59,29.59,10.0,Variable,5.8,-,N/A,,Partly Cloudy,0,2014-04-15 06:53:00
3:53 AM,68.0,52.0,56,29.56,10.0,Variable,6.9,-,N/A,,Overcast,0,2014-04-15 07:53:00
4:53 AM,68.0,52.0,56,29.53,10.0,South,5.8,18.4,N/A,,Overcast,190,2014-04-15 08:53:00
5:53 AM,66.9,52.0,59,29.52,10.0,Variable,6.9,-,N/A,,Mostly Cloudy,0,2014-04-15 09:53:00
6:53 AM,55.9,51.1,84,29.56,2.0,NW,8.1,19.6,0.06,Rain,Rain,320,2014-04-15 10:53:00
6:57 AM,55.0,51.1,86,29.58,4.0,NW,13.8,24.2,0.00,Rain,Light Rain,310,2014-04-15 10:57:00
7:43 AM,48.9,44.1,83,29.67,10.0,West,8.1,-,0.02,,Overcast,280,2014-04-15 11:43:00
7:53 AM,48.9,43.0,80,29.67,9.0,West,8.1,-,0.03,,Overcast,280,2014-04-15 11:53:00
8:27 AM,46.9,42.1,83,29.70,1.8,WNW,9.2,-,0.09,Rain,Rain,300,2014-04-15 12:27:00
8:36 AM,46.9,43.0,86,29.70,3.0,NW,5.8,-,0.11,Rain,Light Rain,320,2014-04-15 12:36:00
8:53 AM,46.0,41.0,83,29.71,7.0,NW,8.1,-,0.12,Rain,Light Rain,310,2014-04-15 12:53:00
9:22 AM,45.0,39.9,82,29.76,4.0,Variable,5.8,-,0.05,Rain,Light Rain,0,2014-04-15 13:22:00
9:32 AM,44.1,39.0,82,29.76,2.0,NNW,8.1,-,0.07,Rain,Rain,330,2014-04-15 13:32:00
9:39 AM,43.0,37.9,82,29.77,3.0,NW,11.5,-,0.09,Rain,Light Rain,320,2014-04-15 13:39:00
9:53 AM,42.1,37.9,85,29.77,4.0,NNW,8.1,-,0.11,Rain,Light Rain,330,2014-04-15 13:53:00
10:00 AM,42.1,37.0,82,29.78,3.0,NNW,10.4,-,0.01,Rain,Light Rain,330,2014-04-15 14:00:00
10:12 AM,41.0,37.0,86,29.80,7.0,NNW,10.4,17.3,0.02,Rain,Light Rain,330,2014-04-15 14:12:00
10:53 AM,39.0,35.1,86,29.83,3.0,WNW,8.1,-,0.04,Rain,Light Rain,300,2014-04-15 14:53:00
11:17 AM,39.0,34.0,82,29.83,4.0,NW,8.1,-,0.01,Rain,Light Rain,310,2014-04-15 15:17:00
11:39 AM,37.9,33.1,83,29.85,5.0,NW,10.4,-,0.03,Rain,Light Rain,320,2014-04-15 15:39:00
11:53 AM,37.9,33.1,83,29.86,5.0,NW,6.9,-,0.03,Rain,Light Rain,320,2014-04-15 15:53:00
12:10 PM,37.9,34.0,86,29.86,4.0,WNW,4.6,-,0.01,Rain,Light Rain,300,2014-04-15 16:10:00
12:31 PM,37.9,33.1,83,29.87,5.0,WNW,8.1,-,0.01,Rain,Light Rain,300,2014-04-15 16:31:00
12:53 PM,37.9,33.1,83,29.88,5.0,NW,4.6,-,0.02,Rain-Snow,Light Rain,320,2014-04-15 16:53:00
1:10 PM,37.9,32.0,79,29.87,9.0,WNW,9.2,-,0.01,Rain-Snow,Light Rain,300,2014-04-15 17:10:00
1:39 PM,37.9,33.1,83,29.88,8.0,NNW,10.4,-,0.01,Snow,Light Snow,330,2014-04-15 17:39:00
1:53 PM,39.0,33.1,79,29.88,7.0,NW,10.4,-,0.01,,Overcast,310,2014-04-15 17:53:00
2:19 PM,37.0,30.9,79,29.90,3.0,WNW,5.8,-,0.00,Rain,Light Rain,290,2014-04-15 18:19:00
2:44 PM,37.9,32.0,79,29.89,10.0,NNW,9.2,17.3,0.00,Rain,Light Rain,340,2014-04-15 18:44:00
2:53 PM,37.9,32.0,79,29.91,8.0,NW,8.1,17.3,0.00,Rain,Light Rain,320,2014-04-15 18:53:00
3:01 PM,37.0,32.0,82,29.92,6.0,WNW,10.4,17.3,0.00,Rain,Light Rain,300,2014-04-15 19:01:00
3:16 PM,37.0,30.0,76,29.91,7.0,Variable,6.9,18.4,0.01,Rain,Light Rain,0,2014-04-15 19:16:00
3:35 PM,36.0,30.9,82,29.92,3.0,Variable,6.9,-,0.01,Snow,Light Snow,0,2014-04-15 19:35:00
3:41 PM,36.0,30.9,82,29.92,1.8,NW,5.8,-,0.01,Snow,Light Snow,320,2014-04-15 19:41:00
3:53 PM,36.0,30.9,82,29.93,1.0,WNW,11.5,-,0.02,Snow,Light Snow,300,2014-04-15 19:53:00
4:01 PM,35.1,30.9,85,29.92,0.8,WNW,5.8,-,0.00,Snow,Light Snow,300,2014-04-15 20:01:00
4:10 PM,35.1,30.9,85,29.92,0.8,WNW,4.6,-,0.00,Snow,Light Snow,300,2014-04-15 20:10:00
4:16 PM,35.1,30.9,85,29.93,1.0,WNW,5.8,-,0.01,Snow,Light Snow,290,2014-04-15 20:16:00
4:28 PM,35.1,30.9,85,29.95,3.0,WNW,6.9,-,0.01,Snow,Light Snow,290,2014-04-15 20:28:00
4:36 PM,36.0,30.9,82,29.95,4.0,Variable,6.9,-,0.01,Snow,Light Snow,0,2014-04-15 20:36:00
4:40 PM,35.1,30.9,85,29.95,1.8,Variable,3.5,-,0.01,Snow,Light Snow,0,2014-04-15 20:40:00
4:45 PM,36.0,30.9,82,29.95,2.0,NW,6.9,-,0.01,Snow,Light Snow,310,2014-04-15 20:45:00
4:48 PM,35.6,30.2,81,29.95,3.0,NW,6.9,-,0.01,Snow,Light Snow,310,2014-04-15 20:48:00
4:53 PM,36.0,30.9,82,29.95,5.0,NW,6.9,-,0.01,Snow,Light Snow,310,2014-04-15 20:53:00
5:20 PM,35.1,28.9,78,29.96,9.0,Variable,6.9,20.7,0.00,Snow,Light Snow,0,2014-04-15 21:20:00
5:53 PM,34.0,26.1,73,29.97,9.0,WNW,13.8,21.9,0.00,Snow,Light Snow,300,2014-04-15 21:53:00
6:27 PM,34.0,24.1,67,30.01,10.0,WNW,9.2,18.4,0.00,,Overcast,290,2014-04-15 22:27:00
6:53 PM,34.0,24.1,67,30.03,10.0,NW,8.1,-,0.00,,Overcast,310,2014-04-15 22:53:00
7:09 PM,34.0,24.1,67,30.04,10.0,Variable,6.9,17.3,N/A,,Overcast,0,2014-04-15 23:09:00
7:53 PM,33.1,21.9,64,30.09,10.0,NW,9.2,-,N/A,,Overcast,310,2014-04-15 23:53:00
8:53 PM,32.0,16.0,52,30.14,10.0,NW,10.4,24.2,N/A,,Mostly Cloudy,320,2014-04-16 00:53:00
9:53 PM,30.9,15.1,52,30.18,10.0,NW,9.2,19.6,N/A,,Overcast,310,2014-04-16 01:53:00
10:53 PM,30.9,15.1,52,30.21,10.0,WNW,8.1,-,N/A,,Overcast,300,2014-04-16 02:53:00
11:53 PM,30.0,15.1,54,30.22,10.0,WNW,6.9,17.3,N/A,,Overcast,300,2014-04-16 03:53:00